Location: *
(46.4000°N, 12.6667°E)
Time: 07:30:10
(UTC+00:00)

Meteor 2-1 Rocket - Pass Details

Date: 09 April 2020
Orbit: 828 x 909 km, 81.3° (Epoch: 24 May)

Event Time Altitude Azimuth Distance (km) Brightness Sun altitude
Exits shadow 19:41:07 24° 160° (SSE) 1,779 5.4 -18.4°
Maximum altitude 19:44:31 53° 94° (E) 1,110 4.5 -18.9°
Drops below altitude 10° 19:50:16 10° 20° (NNE) 2,605 6.9 -19.7°
Sets 19:52:48 0° 16° (NNE) 3,549 7.7 -20.1°
